QPF
0.01 0.01 0.01 0.00 0.00 0.00 0.00 0.00 0.00 0.00 0.00 0.00 0.00 0.00 0.00 0.00 0.00 0.00 0.00 0.00 0.00 0.00 0.00 0.00 0.00 0.00 0.00 0.01 0.00 0.00 0.00 0.01 0.00 0.00 0.00 0.02 0.00 0.00 0.02 0.02 0.04 0.05 0.05 0.07
0.00 0.01 0.01 0.00 0.00 0.00 0.00 0.00 0.00 0.00 0.00 0.00 0.00 0.00 0.00 0.00 0.00 0.00 0.00 0.00 0.00 0.00 0.00 0.01 0.00 0.00 0.00 0.00 0.00 0.00 0.00 0.03 0.02 0.00 0.00 0.00 0.00 0.00 0.01 0.04 0.04 0.04 0.04 0.03
0.00 0.00 0.00 0.00 0.00 0.00 0.00 0.00 0.00 0.00 0.00 0.00 0.00 0.00 0.00 0.00 0.00 0.00 0.00 0.00 0.00 0.00 0.00 0.00 0.00 0.00 0.00 0.00 0.00 0.01 0.03 0.06 0.01 0.00 0.00 0.00 0.00 0.00 0.00 0.03 0.04 0.03 0.03 0.02
0.01 0.00 0.00 0.00 0.01 0.00 0.00 0.00 0.00 0.00 0.00 0.00 0.00 0.00 0.00 0.00 0.00 0.00 0.00 0.00 0.00 0.00 0.00 0.00 0.00 0.00 0.00 0.00 0.00 0.01 0.00 0.00 0.00 0.00 0.00 0.00 0.00 0.00 0.00 0.01 0.03 0.02 0.02 0.02
0.01 0.00 0.00 0.00 0.02 0.00 0.00 0.00 0.00 0.00 0.00 0.00 0.00 0.00 0.00 0.00 0.00 0.00 0.00 0.00 0.00 0.00 0.00 0.00 0.00 0.00 0.00 0.00 0.00 0.01 0.01 0.00 0.00 0.00 0.00 0.00 0.00 0.00 0.00 0.01 0.01 0.02 0.02 0.02
0.01 0.01 0.00 0.01 0.04 0.02 0.01 0.01 0.01 0.02 0.01 0.00 0.00 0.00 0.00 0.00 0.00 0.00 0.00 0.00 0.00 0.00 0.00 0.00 0.00 0.00 0.00 0.00 0.00 0.00 0.00 0.00 0.01 0.00 0.01 0.01 0.00 0.00 0.00 0.00 0.02 0.02 0.02 0.02
0.02 0.01 0.00 0.01 0.02 0.04 0.04 0.07 0.11 0.09 0.03 0.01 0.00 0.00 0.00 0.00 0.00 0.01 0.00 0.00 0.00 0.00 0.00 0.00 0.00 0.00 0.00 0.00 0.00 0.00 0.00 0.01 0.01 0.00 0.01 0.01 0.00 0.00 0.00 0.00 0.01 0.02 0.02 0.02
0.01 0.01 0.02 0.02 0.01 0.00 0.00 0.00 0.04 0.07 0.04 0.01 0.01 0.01 0.01 0.00 0.01 0.06 0.04 0.01 0.00 0.00 0.00 0.00 0.00 0.00 0.00 0.00 0.00 0.00 0.00 0.01 0.01 0.00 0.00 0.00 0.00 0.00 0.00 0.00 0.00 0.01 0.02 0.02
0.01 0.01 0.01 0.00 0.00 0.00 0.01 0.01 0.02 0.04 0.04 0.01 0.00 0.00 0.00 0.03 0.05 0.03 0.02 0.00 0.00 0.00 0.00 0.00 0.00 0.00 0.00 0.02 0.01 0.02 0.02 0.02 0.01 0.00 0.00 0.00 0.00 0.00 0.00 0.00 0.00 0.00 0.01 0.01
0.00 0.00 0.00 0.00 0.01 0.03 0.04 0.00 0.03 0.16 0.13 0.02 0.00 0.00 0.01 0.01 0.01 0.01 0.00 0.00 0.00 0.00 0.00 0.00 0.00 0.00 0.00 0.00 0.01 0.01 0.02 0.02 0.01 0.00 0.00 0.00 0.00 0.00 0.00 0.00 0.00 0.00 0.00 0.01
0.00 0.00 0.01 0.01 0.02 0.02 0.02 0.00 0.01 0.05 0.04 0.01 0.01 0.03 0.02 0.02 0.01 0.01 0.00 0.00 0.00 0.00 0.00 0.00 0.00 0.00 0.00 0.00 0.00 0.01 0.01 0.01 0.00 0.00 0.00 0.00 0.00 0.00 0.00 0.00 0.00 0.00 0.00 0.00
0.00 0.00 0.00 0.01 0.03 0.02 0.03 0.01 0.00 0.02 0.03 0.03 0.01 0.01 0.02 0.04 0.02 0.01 0.00 0.00 0.00 0.00 0.00 0.00 0.00 0.01 0.00 0.00 0.00 0.00 0.00 0.00 0.00 0.00 0.00 0.00 0.00 0.00 0.01 0.00 0.00 0.00 0.00 0.00
0.00 0.00 0.00 0.02 0.01 0.00 0.00 0.00 0.01 0.01 0.02 0.05 0.04 0.02 0.03 0.07 0.05 0.01 0.00 0.00 0.00 0.00 0.00 0.00 0.01 0.01 0.01 0.00 0.00 0.00 0.00 0.00 0.00 0.00 0.00 0.00 0.00 0.00 0.00 0.00 0.00 0.00 0.00 0.00
0.00 0.00 0.01 0.00 0.00 0.00 0.00 0.00 0.00 0.02 0.01 0.04 0.04 0.03 0.05 0.07 0.01 0.00 0.00 0.00 0.00 0.00 0.00 0.00 0.01 0.01 0.00 0.00 0.01 0.00 0.01 0.00 0.00 0.00 0.00 0.00 0.00 0.00 0.00 0.00 0.00 0.00 0.00 0.00
0.00 0.01 0.00 0.00 0.00 0.00 0.00 0.01 0.03 0.04 0.04 0.04 0.02 0.02 0.03 0.02 0.00 0.00 0.00 0.00 0.00 0.00 0.03 0.02 0.01 0.01 0.01 0.01 0.00 0.01 0.01 0.01 0.00 0.00 0.00 0.00 0.00 0.00 0.00 0.00 0.00 0.00 0.00 0.00
0.00 0.01 0.00 0.00 0.00 0.00 0.00 0.02 0.03 0.02 0.07 0.02 0.02 0.02 0.01 0.01 0.00 0.00 0.00 0.00 0.00 0.01 0.02 0.01 0.01 0.02 0.01 0.00 0.00 0.01 0.01 0.01 0.01 0.01 0.00 0.00 0.00 0.00 0.00 0.00 0.00 0.00 0.00 0.00
0.00 0.02 0.02 0.00 0.00 0.00 0.00 0.00 0.00 0.00 0.08 0.03 0.01 0.01 0.00 0.00 0.00 0.00 0.00 0.00 0.00 0.00 0.01 0.01 0.01 0.01 0.00 0.00 0.00 0.01 0.01 0.01 0.01 0.00 0.00 0.00 0.00 0.00 0.00 0.00 0.00 0.00 0.00 0.00
0.00 0.03 0.05 0.01 0.00 0.00 0.00 0.00 0.00 0.00 0.03 0.02 0.02 0.01 0.00 0.00 0.00 0.00 0.00 0.00 0.00 0.00 0.00 0.01 0.00 0.00 0.00 0.00 0.01 0.01 0.01 0.00 0.00 0.00 0.00 0.00 0.00 0.00 0.00 0.00 0.00 0.00 0.00 0.00
0.00 0.03 0.01 0.00 0.00 0.00 0.00 0.00 0.00 0.00 0.00 0.00 0.00 0.01 0.01 0.00 0.00 0.01 0.00 0.00 0.00 0.00 0.00 0.00 0.00 0.00 0.01 0.01 0.01 0.01 0.01 0.01 0.00 0.00 0.00 0.00 0.00 0.00 0.00 0.00 0.00 0.00 0.00 0.00
0.00 0.00 0.00 0.00 0.00 0.00 0.00 0.00 0.00 0.00 0.00 0.00 0.01 0.01 0.01 0.01 0.01 0.01 0.00 0.00 0.00 0.00 0.00 0.00 0.00 0.01 0.01 0.01 0.01 0.01 0.01 0.01 0.00 0.00 0.00 0.00 0.00 0.00 0.00 0.00 0.00 0.00 0.00 0.00
0.00 0.00 0.00 0.00 0.00 0.00 0.00 0.00 0.00 0.00 0.00 0.00 0.00 0.00 0.01 0.00 0.01 0.02 0.01 0.00 0.00 0.00 0.00 0.00 0.00 0.00 0.00 0.00 0.00 0.00 0.00 0.00 0.00 0.00 0.01 0.00 0.00 0.00 0.00 0.00 0.00 0.00 0.00 0.00
0.00 0.00 0.00 0.00 0.00 0.00 0.00 0.00 0.00 0.00 0.00 0.00 0.00 0.00 0.00 0.00 0.01 0.01 0.01 0.00 0.00 0.00 0.00 0.00 0.00 0.01 0.01 0.00 0.00 0.00 0.00 0.00 0.00 0.00 0.00 0.00 0.00 0.00 0.00 0.00 0.00 0.00 0.00 0.00
0.00 0.00 0.00 0.00 0.00 0.00 0.00 0.00 0.00 0.00 0.00 0.00 0.00 0.00 0.00 0.00 0.01 0.01 0.00 0.00 0.00 0.00 0.00 0.00 0.00 0.00 0.00 0.00 0.00 0.00 0.00 0.00 0.00 0.00 0.00 0.00 0.00 0.00 0.00 0.00 0.00 0.00 0.00 0.00
0.00 0.00 0.00 0.00 0.00 0.00 0.00 0.00 0.00 0.00 0.00 0.00 0.00 0.00 0.00 0.00 0.00 0.00 0.00 0.00 0.00 0.00 0.00 0.00 0.00 0.00 0.00 0.00 0.00 0.00 0.00 0.00 0.00 0.00 0.00 0.00 0.00 0.00 0.00 0.00 0.00 0.00 0.00 0.00
0.00 0.00 0.00 0.00 0.00 0.00 0.00 0.00 0.00 0.00 0.00 0.01 0.00 0.00 0.00 0.00 0.00 0.00 0.00 0.00 0.00 0.00 0.00 0.00 0.00 0.00 0.00 0.00 0.00 0.00 0.00 0.00 0.00 0.00 0.00 0.00 0.00 0.00 0.00 0.00 0.00 0.00 0.00 0.00
0.00 0.00 0.00 0.00 0.00 0.00 0.00 0.00 0.00 0.00 0.00 0.00 0.00 0.00 0.00 0.00 0.00 0.00 0.00 0.00 0.00 0.00 0.00 0.00 0.00 0.00 0.00 0.00 0.00 0.00 0.00 0.00 0.00 0.00 0.00 0.00 0.00 0.00 0.00 0.00 0.00 0.00 0.00 0.00
0.00 0.00 0.00 0.00 0.00 0.00 0.00 0.00 0.00 0.00 0.00 0.00 0.00 0.00 0.00 0.00 0.00 0.00 0.00 0.00 0.00 0.00 0.00 0.00 0.00 0.00 0.00 0.00 0.00 0.00 0.00 0.00 0.00 0.00 0.00 0.00 0.00 0.00 0.00 0.00 0.00 0.00 0.00 0.00
MSLP
1027.27 1027.01 1026.71 1026.23 1025.80 1025.49 1025.67 1026.31 1026.11 1024.81 1024.28 1025.55 1026.85 1027.29 1027.05 1026.62 1026.30 1026.33 1026.60 1027.00 1027.35 1027.78 1028.14 1028.52 1028.90 1028.76 1028.40 1028.14 1028.28 1028.76 1029.15 1029.50 1029.23 1028.70 1029.14 1029.29 1029.79 1030.32 1029.82 1028.78 1026.48 1025.82 1026.00 1027.77
1027.15 1026.93 1026.62 1026.30 1025.89 1025.79 1026.63 1027.41 1026.81 1025.17 1025.04 1026.57 1027.50 1027.45 1027.19 1026.81 1026.54 1026.51 1026.71 1026.94 1027.14 1027.61 1028.21 1028.68 1028.44 1028.20 1027.74 1027.67 1027.93 1028.13 1028.79 1029.31 1029.57 1029.53 1030.37 1030.57 1031.37 1031.69 1031.26 1030.10 1029.17 1028.14 1028.34 1029.46
1027.08 1026.81 1026.59 1026.13 1025.95 1026.00 1026.70 1027.53 1027.49 1026.75 1027.02 1028.00 1028.04 1028.09 1027.73 1027.19 1026.59 1026.56 1026.74 1026.90 1027.21 1027.84 1028.21 1028.47 1028.37 1028.05 1027.61 1027.47 1027.57 1027.54 1027.64 1028.80 1029.71 1030.49 1031.17 1032.01 1032.63 1032.83 1032.18 1030.91 1030.29 1030.13 1030.57 1030.94
1026.73 1026.54 1026.21 1025.98 1025.94 1026.08 1026.89 1027.88 1028.15 1028.04 1028.20 1028.24 1028.21 1028.22 1027.90 1027.32 1026.95 1026.69 1026.75 1026.92 1027.18 1027.82 1028.45 1028.57 1028.34 1028.07 1027.70 1027.44 1027.37 1027.67 1028.05 1028.87 1029.65 1030.31 1031.14 1032.07 1033.09 1033.44 1033.18 1032.60 1032.23 1031.98 1032.37 1032.29
1026.91 1026.53 1026.21 1025.90 1025.85 1026.08 1026.96 1027.79 1028.19 1028.65 1028.31 1028.30 1028.23 1028.05 1027.77 1027.17 1026.61 1026.72 1026.60 1026.74 1026.85 1027.54 1028.31 1028.50 1028.28 1028.23 1028.05 1027.85 1027.75 1028.07 1028.47 1029.01 1029.61 1030.39 1031.14 1031.89 1033.06 1033.60 1033.80 1033.85 1033.69 1033.49 1033.41 1033.22
1026.53 1026.29 1026.12 1026.03 1025.80 1025.97 1026.89 1027.64 1027.84 1027.79 1027.56 1027.88 1028.12 1027.54 1026.75 1026.34 1026.13 1025.95 1025.74 1026.15 1026.71 1026.94 1027.08 1027.41 1027.47 1027.62 1027.65 1027.68 1027.93 1028.30 1028.67 1029.20 1029.90 1030.51 1031.09 1032.29 1033.41 1034.20 1034.50 1035.01 1035.00 1034.68 1034.52 1034.61
1026.40 1026.21 1026.06 1025.96 1025.74 1026.24 1026.70 1027.21 1027.46 1027.65 1027.04 1027.13 1026.98 1026.68 1026.66 1026.36 1026.11 1025.65 1025.46 1025.91 1026.33 1026.32 1026.42 1026.90 1027.15 1027.46 1027.53 1027.66 1027.81 1027.97 1028.49 1029.25 1029.98 1031.12 1032.00 1033.58 1034.47 1034.69 1034.97 1035.50 1035.74 1035.54 1035.22 1034.86
1026.25 1026.15 1026.04 1025.86 1025.83 1025.50 1026.22 1026.57 1026.75 1026.69 1026.26 1026.25 1026.21 1026.33 1026.25 1025.97 1025.67 1025.18 1025.03 1025.43 1025.80 1026.09 1026.62 1027.29 1027.47 1027.66 1027.86 1027.92 1027.88 1028.09 1028.43 1029.26 1030.56 1032.01 1033.56 1034.87 1035.27 1035.89 1036.23 1036.41 1036.57 1036.28 1035.90 1035.25
1026.12 1025.85 1025.66 1025.37 1025.07 1024.93 1025.35 1025.64 1025.78 1025.80 1025.58 1025.15 1025.13 1025.95 1026.13 1026.06 1025.70 1025.43 1025.18 1025.33 1025.62 1026.05 1026.74 1027.56 1028.36 1028.47 1028.44 1028.32 1028.64 1028.53 1029.12 1029.81 1030.99 1033.15 1034.82 1035.88 1036.56 1036.81 1036.92 1036.98 1037.22 1036.92 1036.68 1036.20
1026.03 1025.74 1025.51 1025.20 1024.90 1024.69 1024.91 1025.08 1025.20 1025.31 1024.86 1025.14 1025.62 1025.97 1025.88 1025.98 1026.06 1025.97 1025.85 1025.81 1026.08 1026.25 1027.12 1028.09 1028.72 1029.17 1029.34 1029.71 1030.17 1030.67 1030.91 1031.87 1033.07 1034.32 1036.25 1037.37 1037.65 1037.60 1037.41 1038.00 1038.87 1037.66 1037.40 1037.06
1025.99 1025.59 1025.20 1024.80 1024.54 1024.51 1024.98 1024.91 1024.79 1025.05 1025.20 1025.52 1025.60 1025.78 1026.03 1026.16 1026.13 1026.07 1026.19 1026.52 1026.67 1027.16 1027.88 1028.74 1029.14 1029.71 1030.36 1031.47 1033.15 1033.62 1034.01 1034.79 1035.78 1036.81 1037.89 1038.84 1038.40 1038.11 1038.51 1039.07 1038.42 1038.22 1037.96 1037.70
1025.84 1025.49 1025.04 1024.69 1024.48 1024.21 1024.24 1025.03 1024.87 1024.68 1025.25 1025.88 1026.04 1026.46 1026.61 1026.56 1026.03 1025.98 1026.26 1026.55 1026.66 1027.19 1028.40 1029.42 1029.76 1030.47 1031.51 1032.89 1034.71 1035.70 1036.79 1037.61 1037.93 1039.13 1039.51 1039.66 1039.45 1039.39 1039.33 1039.24 1039.02 1038.75 1038.46 1038.21
1025.66 1025.17 1024.83 1024.59 1024.49 1024.28 1024.41 1024.82 1024.98 1024.95 1025.37 1026.38 1026.60 1026.83 1026.74 1026.49 1026.35 1025.93 1026.18 1026.62 1026.82 1027.62 1028.38 1029.39 1030.33 1031.61 1032.71 1034.23 1036.14 1037.27 1038.43 1038.76 1039.28 1039.97 1040.32 1040.27 1040.04 1039.85 1039.70 1039.48 1039.37 1039.19 1038.98 1038.68
1025.45 1025.02 1024.78 1024.72 1024.47 1024.58 1024.61 1025.24 1025.52 1025.30 1025.46 1026.25 1027.69 1027.44 1027.37 1027.33 1026.44 1025.92 1025.85 1026.29 1027.04 1028.00 1029.05 1030.42 1031.69 1033.00 1034.26 1036.11 1037.46 1038.67 1040.04 1039.83 1040.43 1040.86 1040.87 1040.82 1040.72 1040.61 1040.44 1040.04 1039.79 1039.58 1039.41 1039.21
1025.43 1025.16 1025.10 1024.78 1024.50 1024.81 1025.25 1025.48 1026.18 1025.79 1025.93 1026.41 1027.45 1027.81 1028.20 1027.86 1027.24 1026.84 1026.78 1027.17 1028.04 1029.26 1030.67 1032.02 1033.67 1034.65 1035.84 1037.58 1038.78 1040.63 1041.23 1041.42 1041.43 1041.40 1041.40 1041.48 1041.37 1041.13 1040.95 1040.71 1040.49 1040.25 1040.03 1039.69
1025.34 1025.26 1025.35 1025.11 1024.77 1024.90 1025.56 1025.99 1025.91 1025.91 1025.95 1026.47 1027.66 1028.75 1028.84 1028.56 1028.28 1028.15 1028.25 1028.53 1029.38 1030.64 1032.28 1034.02 1035.24 1036.02 1036.74 1038.80 1040.80 1041.93 1041.88 1041.81 1041.85 1041.72 1041.59 1041.63 1041.49 1041.39 1041.28 1041.25 1040.93 1040.60 1040.51 1040.45
1025.51 1025.65 1025.78 1025.71 1025.40 1025.76 1026.81 1027.96 1027.31 1026.09 1025.97 1026.72 1028.20 1029.01 1029.31 1029.20 1028.85 1029.16 1029.50 1029.85 1030.97 1031.88 1033.66 1035.38 1036.65 1037.26 1037.72 1040.11 1041.95 1042.29 1042.13 1041.88 1041.71 1041.57 1041.57 1041.76 1041.70 1041.74 1041.43 1041.34 1041.17 1040.97 1041.00 1040.97
1025.40 1025.32 1025.85 1025.87 1025.99 1026.47 1027.42 1028.12 1027.14 1026.77 1027.44 1028.59 1029.96 1030.69 1030.40 1030.54 1030.03 1030.06 1030.38 1031.33 1032.27 1033.59 1035.13 1036.66 1037.59 1038.38 1039.63 1041.87 1042.67 1042.47 1042.16 1041.80 1041.67 1041.55 1041.46 1041.52 1041.52 1041.54 1041.45 1041.35 1041.28 1041.23 1041.20 1041.04
1025.27 1025.65 1026.14 1026.71 1027.33 1028.14 1028.56 1028.16 1028.22 1028.42 1029.29 1031.26 1032.93 1033.32 1032.54 1031.90 1031.30 1030.94 1031.34 1031.86 1033.77 1034.96 1036.54 1037.69 1038.46 1040.38 1042.04 1043.11 1043.02 1042.71 1042.43 1042.21 1041.88 1041.48 1041.24 1041.18 1041.37 1041.56 1041.36 1041.27 1041.26 1041.42 1041.29 1041.06
1025.90 1026.26 1027.10 1028.74 1029.59 1028.85 1028.50 1028.82 1029.98 1031.43 1032.83 1034.10 1035.65 1035.30 1034.33 1033.79 1032.64 1032.19 1032.70 1033.51 1034.73 1036.29 1038.11 1038.64 1040.36 1042.68 1043.35 1043.29 1043.05 1042.76 1042.41 1041.96 1041.64 1041.38 1041.17 1041.09 1041.13 1041.18 1041.13 1041.05 1040.94 1040.94 1040.95 1040.90
1027.10 1028.30 1029.82 1030.63 1030.01 1030.03 1031.73 1033.76 1035.25 1036.58 1037.46 1037.86 1037.73 1037.03 1036.16 1034.87 1034.38 1033.75 1034.13 1035.09 1035.95 1037.50 1039.12 1039.95 1042.14 1043.57 1043.72 1043.34 1042.96 1042.54 1042.19 1041.92 1041.64 1041.44 1041.19 1041.07 1040.95 1040.78 1040.66 1040.58 1040.54 1040.49 1040.44 1040.49
1028.94 1029.74 1031.20 1032.01 1033.96 1034.90 1036.57 1039.45 1039.93 1040.53 1040.95 1039.99 1039.26 1038.47 1037.65 1036.41 1035.48 1035.30 1035.68 1036.58 1037.64 1039.55 1040.13 1041.37 1043.45 1044.09 1043.75 1043.34 1042.89 1042.52 1042.22 1041.89 1041.68 1041.42 1041.22 1041.04 1040.78 1040.58 1040.42 1040.31 1040.25 1040.21 1040.13 1040.00
1030.11 1031.83 1034.99 1037.11 1039.69 1040.69 1042.83 1043.91 1043.36 1042.89 1041.94 1041.04 1040.53 1039.63 1038.68 1037.54 1036.86 1037.19 1037.80 1038.77 1040.12 1040.64 1041.81 1043.49 1044.42 1044.16 1043.74 1043.39 1042.93 1042.65 1042.31 1042.01 1041.86 1041.56 1041.35 1041.16 1040.81 1040.61 1040.53 1040.42 1040.25 1040.12 1039.96 1039.79
1034.38 1037.51 1041.05 1042.53 1044.88 1045.31 1045.26 1045.06 1044.35 1043.41 1042.45 1041.79 1041.20 1040.73 1040.21 1039.50 1039.25 1039.68 1040.47 1041.55 1041.63 1042.69 1043.73 1044.57 1044.63 1044.22 1043.83 1043.45 1043.10 1042.88 1042.63 1042.41 1042.27 1042.02 1041.71 1041.47 1041.16 1040.88 1040.72 1040.58 1040.39 1040.17 1039.96 1039.73
1038.53 1041.00 1044.96 1045.93 1046.14 1045.82 1045.37 1044.74 1044.08 1043.14 1042.56 1042.28 1042.03 1042.02 1042.02 1042.03 1042.18 1042.42 1042.83 1043.39 1044.32 1044.58 1044.89 1044.85 1044.64 1044.35 1044.00 1043.71 1043.37 1043.08 1042.87 1042.71 1042.54 1042.37 1042.12 1041.85 1041.52 1041.24 1040.92 1040.64 1040.42 1040.17 1039.94 1039.73
1041.84 1044.79 1046.40 1046.24 1046.19 1045.94 1045.30 1044.70 1044.10 1043.27 1042.91 1042.78 1043.39 1044.11 1044.93 1045.65 1045.44 1045.37 1045.93 1045.76 1046.00 1045.78 1045.29 1044.79 1044.54 1044.40 1044.20 1044.01 1043.72 1043.39 1043.02 1042.79 1042.61 1042.39 1042.14 1041.85 1041.58 1041.35 1041.07 1040.66 1040.33 1040.03 1039.88 1039.69
1045.64 1047.28 1046.64 1046.50 1046.32 1046.19 1045.61 1044.81 1043.98 1043.24 1043.30 1044.25 1044.91 1046.76 1047.91 1047.51 1047.48 1047.75 1046.99 1046.80 1046.32 1045.58 1045.01 1044.59 1044.42 1044.33 1044.20 1043.92 1043.59 1043.30 1042.96 1042.65 1042.39 1042.14 1041.91 1041.71 1041.42 1041.19 1040.94 1040.64 1040.07 1039.80 1039.45 1039.30
Thickness
5461 5457 5453 5450 5446 5440 5434 5419 5419 5417 5412 5391 5357 5341 5337 5354 5341 5330 5316 5302 5289 5276 5270 5262 5248 5240 5234 5238 5236 5212 5203 5203 5203 5227 5199 5205 5189 5178 5195 5204 5245 5250 5250 5221
5452 5446 5442 5436 5432 5427 5413 5396 5390 5402 5394 5369 5350 5344 5337 5330 5321 5310 5298 5288 5281 5271 5256 5238 5239 5236 5240 5234 5228 5206 5203 5181 5214 5207 5190 5182 5163 5164 5180 5192 5201 5221 5232 5211
5440 5435 5429 5426 5420 5411 5399 5384 5376 5374 5360 5340 5333 5322 5312 5303 5304 5292 5284 5275 5267 5255 5244 5234 5221 5224 5231 5230 5226 5233 5230 5198 5191 5188 5168 5170 5153 5150 5161 5185 5205 5197 5188 5186
5432 5425 5420 5413 5405 5396 5383 5366 5359 5348 5336 5329 5312 5301 5291 5285 5276 5275 5268 5262 5252 5234 5225 5221 5215 5217 5218 5220 5224 5214 5211 5196 5181 5192 5183 5170 5164 5131 5143 5164 5168 5177 5171 5172
5417 5413 5404 5398 5392 5383 5365 5351 5339 5324 5316 5303 5289 5279 5271 5269 5266 5259 5253 5242 5242 5216 5195 5200 5200 5204 5203 5203 5208 5203 5200 5182 5194 5189 5185 5184 5164 5158 5133 5151 5151 5158 5162 5165
5408 5401 5392 5383 5375 5366 5347 5329 5320 5314 5313 5284 5270 5266 5267 5266 5260 5258 5254 5240 5226 5218 5217 5208 5204 5201 5203 5203 5193 5195 5196 5176 5187 5165 5192 5178 5163 5136 5131 5129 5139 5146 5145 5150
5396 5388 5379 5369 5358 5344 5332 5315 5302 5292 5295 5277 5273 5270 5260 5258 5249 5246 5244 5233 5216 5218 5216 5210 5206 5197 5194 5187 5189 5199 5185 5189 5186 5172 5179 5141 5139 5148 5147 5128 5133 5135 5141 5144
5385 5375 5363 5352 5341 5329 5317 5301 5286 5277 5272 5272 5268 5257 5250 5244 5239 5234 5232 5222 5218 5209 5209 5193 5196 5194 5197 5193 5191 5186 5192 5192 5166 5165 5142 5136 5131 5121 5125 5119 5123 5127 5129 5136
5370 5360 5349 5339 5328 5315 5301 5289 5276 5267 5262 5261 5264 5243 5233 5234 5218 5223 5219 5215 5207 5208 5202 5189 5173 5182 5194 5201 5182 5189 5186 5183 5186 5151 5138 5151 5122 5123 5122 5118 5124 5121 5122 5125
5354 5343 5331 5321 5310 5299 5288 5276 5266 5258 5257 5250 5235 5219 5213 5208 5203 5201 5200 5203 5200 5200 5191 5190 5182 5159 5168 5183 5184 5170 5176 5161 5158 5162 5083 5108 5108 5111 5116 5109 5109 5113 5114 5116
5336 5325 5314 5305 5294 5282 5272 5266 5258 5249 5240 5229 5227 5219 5208 5201 5196 5194 5189 5190 5184 5182 5171 5174 5161 5166 5149 5141 5120 5130 5142 5142 5132 5111 5088 5113 5104 5112 5114 5097 5104 5105 5106 5109
5317 5306 5297 5286 5277 5270 5264 5255 5248 5239 5228 5216 5209 5197 5189 5186 5189 5189 5182 5182 5178 5179 5164 5151 5159 5167 5143 5119 5128 5105 5121 5094 5105 5092 5087 5081 5087 5086 5089 5088 5093 5096 5099 5101
5300 5290 5279 5271 5264 5259 5252 5243 5233 5225 5214 5196 5190 5182 5178 5177 5177 5179 5179 5173 5175 5160 5150 5140 5151 5140 5135 5131 5101 5097 5086 5082 5084 5085 5080 5079 5081 5088 5088 5090 5087 5090 5092 5095
5283 5274 5266 5260 5254 5247 5240 5228 5216 5209 5199 5187 5168 5167 5165 5163 5169 5173 5175 5173 5167 5160 5150 5129 5132 5125 5114 5091 5089 5083 5072 5078 5070 5068 5070 5073 5074 5077 5074 5079 5083 5084 5086 5088
5268 5262 5255 5249 5243 5233 5222 5211 5198 5191 5184 5176 5161 5157 5151 5153 5158 5161 5162 5159 5150 5142 5129 5122 5105 5106 5095 5082 5074 5058 5057 5058 5063 5067 5063 5062 5063 5065 5067 5069 5070 5073 5076 5081
5256 5252 5245 5237 5229 5219 5206 5192 5185 5175 5171 5166 5153 5142 5139 5141 5144 5146 5145 5144 5136 5121 5109 5098 5089 5090 5084 5060 5047 5046 5050 5050 5049 5056 5053 5054 5056 5056 5055 5056 5060 5059 5064 5069
5245 5236 5229 5221 5212 5202 5181 5161 5160 5166 5162 5157 5144 5136 5133 5132 5137 5133 5131 5126 5113 5111 5100 5086 5074 5074 5075 5050 5038 5041 5043 5045 5046 5048 5048 5051 5047 5051 5053 5051 5053 5055 5053 5055
5236 5227 5213 5202 5192 5180 5163 5155 5156 5153 5146 5135 5118 5114 5121 5118 5124 5121 5119 5105 5097 5094 5082 5073 5064 5065 5057 5033 5030 5035 5038 5043 5044 5045 5043 5043 5042 5044 5047 5044 5047 5048 5046 5051
5227 5213 5198 5185 5170 5155 5146 5143 5139 5135 5128 5104 5090 5083 5096 5103 5111 5115 5108 5107 5092 5086 5067 5059 5063 5046 5026 5022 5022 5025 5030 5030 5035 5040 5043 5044 5042 5042 5044 5043 5043 5042 5044 5047
5212 5198 5181 5155 5144 5142 5139 5129 5118 5105 5093 5082 5066 5071 5078 5084 5095 5101 5095 5083 5079 5057 5054 5055 5037 5014 5015 5016 5020 5021 5025 5030 5033 5036 5040 5042 5042 5042 5041 5040 5039 5041 5044 5044
5192 5170 5148 5138 5135 5129 5108 5084 5069 5057 5039 5049 5047 5053 5055 5071 5072 5084 5078 5064 5067 5042 5046 5037 5005 4997 5007 5012 5017 5020 5023 5026 5028 5031 5034 5035 5036 5038 5039 5041 5042 5043 5043 5042
5166 5153 5135 5123 5100 5080 5060 5020 5031 5019 5012 5028 5029 5039 5044 5054 5065 5065 5064 5054 5047 5024 5039 5020 4986 4999 5004 5009 5013 5016 5019 5022 5024 5026 5028 5030 5033 5034 5036 5038 5039 5039 5040 5041
5153 5131 5092 5075 5045 5029 4999 4986 4989 4992 5015 5022 5025 5026 5036 5044 5054 5043 5039 5031 5027 5034 5008 4999 4991 4998 5004 5004 5010 5012 5014 5017 5018 5021 5022 5024 5027 5030 5030 5031 5033 5033 5035 5037
5108 5075 5047 5022 4997 5006 4999 5005 5007 5013 5016 5019 5022 5018 5025 5035 5030 5026 5014 5013 5012 4989 4979 4983 4983 4992 4998 5001 5005 5005 5007 5009 5010 5012 5015 5017 5019 5022 5023 5024 5025 5027 5029 5032
5068 5054 5009 4996 5010 5011 5003 5008 5012 5017 5018 5017 5014 5010 5011 5003 4996 5011 5004 4986 4976 4989 4984 4986 4988 4991 4994 4995 4998 5000 5001 5001 5001 5003 5005 5007 5010 5012 5014 5016 5018 5020 5022 5024
5059 5032 5007 5021 5007 5002 5001 5000 5004 5013 5015 5012 5002 4976 4970 4966 4961 4969 4959 4957 4969 4974 4980 4985 4985 4986 4987 4987 4989 4991 4994 4995 4996 4997 4999 5001 5003 5004 5005 5007 5010 5013 5014 5015
5032 5012 5024 5016 5007 5003 5006 5009 5013 5015 5011 4985 4980 4968 4954 4956 4941 4940 4968 4957 4970 4977 4980 4984 4982 4982 4981 4980 4982 4987 4989 4990 4991 4992 4994 4994 4996 4995 4996 4997 5004 5005 5008 5008